Hourly Weather Roundup
Issued by NWS Central Illinois

Home | Current Version | Previous Version | Text Only | Print | Product List | Glossary On
Versions: 1 2 3 4 5 6 7 8 9 10 11 12 13 14 15 16 17 18 19 20 21 22 23 24 25 26 27 28 29 30 31 32 33 34 35 36 37 38 39 40 41 42 43 44 45 46 47 48 49 50
000
NZUS43 KILX 312010
HWRILX

AREA WEATHER ROUNDUP
NATIONAL WEATHER SERVICE, LINCOLN IL
300 PM CDT THU JUL 31 2014


CITY           SKY/WX    TMP DP  RH WIND       PRES   REMARKS
BLOOMINGTON    PTSUNNY   79  58  48 SW10      30.09F HX  80
CHAMPAIGN      MOSUNNY   81  60  48 W7        30.09S HX  82
DECATUR        PTSUNNY   81  57  43 SW6       30.09S HX  81
FLORA          SUNNY     82  58  44 SW7       30.08F HX  81
GALESBURG      SUNNY     85  63  47 W8        30.07F HX  86
JACKSONVILLE   MOSUNNY   83  62  49 W7        30.09F HX  83
LACON          SUNNY     82  56  40 SW8       30.05S HX  81
LAWRENCEVILLE  PTSUNNY   82  62  50 S7        30.08F HX  83
LITCHFIELD     MOSUNNY   82  58  44 SW3       30.08F HX  82
$$


CITY           SKY/WX    TMP DP  RH WIND       PRES   REMARKS
LINCOLN        MOSUNNY   83  58  41 CALM      30.05S HX  83
MACOMB         MOSUNNY   79  61  54 W3        30.10S HX  80
MATTOON        MOSUNNY   81  61  50 NW8       30.08S HX  82
MT CARMEL AP   PTSUNNY   82  61  47 W5        30.08F HX  83
OLNEY-NOBLE AP MOSUNNY   81  63  54 CALM      30.08F HX  82
PARIS          MOSUNNY   80  63  55 W7        30.09F HX  81
PEORIA         SUNNY     84  58  40 SW8       30.07F HX  83
PONTIAC        SUNNY     82  61  47 W9        30.06F HX  83
RANTOUL          N/A     82  58  44 SW5       30.09F HX  82
ROBINSON       MOSUNNY   80  63  56 NW3       30.09S HX  81
SPRINGFIELD    SUNNY     83  62  49 NW7       30.08F HX  84
TAYLORVILLE    MOSUNNY   81  59  47 W6        30.08F HX  81
$$

...REGIONAL REPORTS...


CITY           SKY/WX    TMP DP  RH WIND       PRES   REMARKS
CHICAGO O`HARE MOSUNNY   84  53  34 W17G25    30.02F HX  82
KANKAKEE       SUNNY     80  63  56 SW9G16    30.07S HX  82
MOLINE         MOSUNNY   83  57  41 W8        30.05F HX  82
MOUNT VERNON   SUNNY     84  61  45 CALM      30.09F HX  84
PITTSFIELD     PTSUNNY   79  59  50 CALM      30.10S HX  80
QUINCY         SUNNY     81  58  45 CALM      30.08F HX  81
ROCKFORD       MOSUNNY   83  57  41 W10G20    30.05S HX  82
$$


CITY           SKY/WX    TMP DP  RH WIND       PRES   REMARKS
BURLINGTON     MOSUNNY   80  60  50 SW9       30.07F HX  81
CEDAR RAPIDS   MOSUNNY   80  60  50 W8        30.06S HX  81
DES MOINES     MOSUNNY   82  55  39 NW7       30.07S HX  81
KIRKSVILLE     SUNNY     83  54  36 CALM      30.09F HX  82
OTTUMWA        SUNNY     80  59  48 VRB6      30.06F HX  81
ST LOUIS       PTSUNNY   83  58  42 VRB3      30.08S HX  83
$$


CITY           SKY/WX    TMP DP  RH WIND       PRES   REMARKS
TERRE HAUTE    MOSUNNY   80  60  50 W6        30.08F HX  81
EVANSVILLE     SUNNY     84  58  40 MISG      30.08F HX  83
INDIANAPOLIS   MOSUNNY   80  58  46 W12       30.08F HX  80
LAFAYETTE      SUNNY     80  57  45 W8        30.07S HX  80
MADISON        MOSUNNY   82  57  42 W8        30.01F HX  82
MILWAUKEE      MOSUNNY   82  55  39 W12       30.00S HX  81
$$




USA.gov is the U.S. government's official web portal to all federal, state and local government web resources and services.